GFSFLT2_prec_cloud_192.txt.gz
Cloud_Cover
100 100 50 100 100 70 100 100 100 100 98 30 5 0 0 5 1 5 13 30 54 26 10 5 5 5 16 8 94 27 5 28
100 38 68 98 100 100 100 100 100 90 31 82 68 5 0 0 0 5 1 4 31 19 43 5 5 5 5 5 15 21 8 6
82 62 49 49 86 94 100 56 17 88 84 11 90 17 4 5 3 0 0 0 0 0 0 0 5 3 4 5 5 4 5 0
100 100 100 100 100 100 77 30 94 99 64 95 32 5 5 5 5 1 0 0 0 0 0 0 0 0 0 0 1 5 2 5
92 49 100 100 100 98 78 87 70 89 75 36 26 52 6 5 3 5 2 5 0 0 0 0 0 0 4 5 5 5 2 0
99 100 95 100 100 98 100 100 100 45 77 65 96 50 9 5 5 5 3 5 2 0 1 4 2 5 5 4 5 5 3 3
7 88 92 100 100 100 100 92 86 100 98 100 69 84 81 34 100 68 96 74 28 19 19 6 13 5 1 13 5 4 0 0
88 96 98 98 97 99 100 100 100 100 100 100 100 93 99 100 100 56 50 82 46 98 100 96 60 4 81 8 6 5 5 2
100 100 100 85 18 72 100 95 64 77 100 100 100 100 100 100 100 100 100 100 100 100 100 100 100 98 44 5 5 60 5 5
100 96 100 100 87 100 100 100 100 95 91 96 98 100 100 100 100 100 100 100 100 99 98 100 91 83 81 38 5 21 18 5
100 100 100 100 100 100 100 100 100 100 100 76 99 99 100 92 100 100 98 87 50 50 98 100 100 100 42 57 64 91 68 51
12 59 67 62 64 81 100 100 100 100 86 100 100 100 100 100 100 100 100 91 70 89 100 100 100 91 80 15 6 25 22 40
100 100 100 100 100 100 100 100 100 100 94 100 77 76 53 68 100 88 84 96 100 97 100 100 89 64 11 10 51 32 15 24
100 100 100 100 100 100 100 100 100 100 100 37 7 30 100 94 100 98 88 100 100 62 85 100 100 96 65 22 34 24 30 5
83 61 68 96 99 100 100 100 100 100 100 100 100 100 100 100 100 100 100 100 95 99 100 100 100 100 100 100 94 44 65 70
95 95 75 59 5 5 8 26 78 100 100 100 74 85 99 100 100 100 100 100 100 100 100 100 100 100 100 99 51 14 5 23
100 98 99 36 5 8 25 10 5 5 5 24 98 92 100 100 97 62 24 11 35 6 5 7 9 5 25 96 59 5 5 5
100 100 100 77 5 4 6 5 5 9 6 6 5 5 70 69 61 71 89 90 9 27 93 100 76 78 74 88 100 63 5 5
100 100 100 76 53 5 17 35 5 50 98 97 90 59 93 100 86 91 100 95 71 97 52 83 100 100 100 100 96 68 32 46
100 100 98 100 100 43 24 100 100 86 56 100 100 100 98 100 77 100 100 100 99 100 100 100 100 100 100 100 100 100 88 96

GFSFLT2_prec_cloud_198.txt.gz
Cloud_Cover
31 9 12 100 100 92 100 100 100 100 100 98 44 6 5 4 0 4 2 5 5 5 5 8 5 23 100 81 95 91 100 100
58 65 100 100 100 100 100 100 100 100 100 51 12 51 5 5 5 5 5 5 5 5 5 5 35 4 16 49 47 83 99 97
61 96 100 100 100 100 100 100 100 100 100 100 100 100 96 12 5 5 5 5 5 5 5 4 18 1 0 3 0 3 5 54
100 100 100 100 100 100 100 100 100 100 21 89 100 100 100 100 31 5 5 5 5 5 52 72 48 2 3 0 0 0 0 0
100 100 77 56 100 100 100 100 100 74 74 73 100 100 100 100 56 84 65 86 77 36 65 58 32 5 5 5 3 0 0 0
98 100 41 40 94 100 100 100 100 100 48 98 100 100 100 100 94 85 86 92 99 100 65 16 30 5 5 5 5 0 0 0
62 38 58 100 100 94 88 42 100 100 100 100 100 100 100 100 100 100 100 100 100 100 95 99 73 18 5 5 24 8 5 5
22 60 92 94 98 38 30 36 98 100 100 100 100 100 100 100 100 100 100 100 100 100 100 100 100 100 100 100 100 95 85 30
5 54 99 80 91 100 82 5 54 89 92 100 100 100 100 100 100 99 92 100 100 100 66 50 89 100 100 100 100 100 99 89
4 100 60 10 5 5 6 39 86 17 33 85 100 100 100 100 100 100 100 100 100 78 49 44 10 28 14 59 46 84 94 97
46 96 89 5 23 5 5 7 24 55 59 27 100 100 97 97 98 95 100 100 100 100 100 91 73 60 45 58 23 49 93 99
71 99 91 5 6 33 24 11 4 14 79 7 69 98 100 100 100 100 100 100 100 100 100 99 92 95 95 90 87 87 96 94
100 100 95 7 5 15 100 100 75 9 5 16 8 14 65 100 100 100 100 100 100 100 100 100 100 100 89 17 27 25 41 68
100 100 99 98 94 95 99 93 100 100 100 100 78 79 100 100 100 100 100 100 100 100 100 100 100 100 100 99 78 30 8 11
100 100 100 100 74 72 96 100 100 100 100 100 100 100 100 100 100 67 5 5 6 95 71 59 93 82 88 67 28 25 69 97
100 89 100 100 100 100 100 100 100 100 100 100 100 100 100 100 100 96 66 28 5 52 6 4 4 0 0 0 0 4 5 24
100 100 100 100 100 100 100 100 100 100 100 100 100 100 100 100 100 100 100 100 100 91 43 11 5 2 3 0 0 0 0 4
100 100 100 100 100 100 100 100 100 100 100 100 100 100 100 100 100 65 100 100 100 92 94 69 1 2 0 0 1 5 2 28
100 100 100 100 100 100 100 100 100 100 100 100 100 100 100 100 99 46 25 56 81 78 69 70 42 27 2 5 14 5 31 93
100 100 100 100 100 100 100 100 100 100 100 100 100 100 100 100 100 100 100 39 54 92 98 93 92 4 14 5 97 100 100 100

GFSFLT2_prec_cloud_201.txt.gz
Cloud_Cover
53 29 49 81 84 64 48 88 100 100 100 100 100 98 6 5 5 5 5 2 0 0 4 3 5 26 96 100 100 100 100 100
88 96 68 67 57 64 96 100 100 100 100 98 99 32 38 8 5 2 5 3 0 0 2 5 5 5 3 5 51 61 79 100
93 52 59 84 100 100 100 100 100 100 100 100 8 5 45 81 73 28 15 12 5 5 5 4 5 5 5 5 4 20 21 32
100 83 80 100 100 100 100 100 100 100 100 84 100 90 54 77 100 42 100 80 5 5 5 5 5 5 5 5 5 2 0 1
83 100 100 100 100 100 100 100 100 100 100 27 36 100 100 100 100 100 96 94 74 44 78 74 8 5 5 5 5 5 2 0
100 100 100 100 100 100 100 100 100 100 100 100 100 92 100 100 100 100 100 100 95 77 66 68 81 22 11 46 14 16 49 36
66 100 100 100 100 100 100 100 100 100 92 100 99 100 100 100 100 100 100 100 100 100 100 62 81 100 100 100 100 92 64 47
43 28 24 61 99 100 100 100 100 60 26 99 100 100 73 96 100 100 100 100 100 84 100 94 100 100 100 100 100 100 100 94
56 56 28 21 11 51 63 33 13 10 65 100 100 92 6 29 94 99 100 100 100 100 96 91 91 76 94 100 100 100 100 100
8 42 58 79 98 92 5 5 8 5 84 85 18 5 9 6 30 65 100 99 100 99 94 100 100 70 58 22 90 29 70 92
16 5 70 96 100 95 24 56 43 16 58 58 28 5 23 6 54 73 64 89 94 100 66 47 99 100 95 69 90 51 39 66
70 32 44 100 100 97 12 5 57 73 81 100 100 95 10 97 99 84 62 72 87 88 100 100 100 99 97 66 73 88 88 88
100 94 58 100 100 100 31 27 44 35 34 28 67 25 5 11 10 62 57 98 46 89 98 100 100 100 100 100 100 100 82 37
100 95 95 100 100 100 74 17 63 100 60 57 81 100 88 68 44 54 7 64 88 48 98 95 52 98 100 74 84 80 47 43
100 100 100 100 100 100 100 100 100 100 100 100 100 100 100 100 99 100 100 100 100 100 100 100 89 100 35 54 4 3 12 4
100 100 100 100 100 100 100 100 100 100 100 100 100 100 100 100 100 100 100 100 98 98 100 100 100 100 100 97 66 30 37 21
100 100 100 100 100 100 100 100 100 100 100 100 100 100 100 100 100 100 100 100 100 100 99 100 100 100 100 100 86 97 98 100
100 100 100 100 100 100 100 100 100 100 100 100 100 100 100 100 100 100 100 100 100 95 100 94 60 100 100 100 25 3 5 0
100 100 100 100 100 100 100 100 100 100 100 100 100 100 100 100 100 100 100 100 100 100 100 100 100 79 39 4 3 5 23 0
100 100 100 100 100 100 100 100 100 100 100 100 100 100 100 100 100 100 100 100 100 100 100 100 100 97 100 99 63 6 81 0

GFSFLT2_prec_cloud_204.txt.gz
Cloud_Cover
85 96 24 26 5 5 32 36 42 100 100 100 100 100 49 5 5 4 4 5 5 3 5 5 7 12 5 5 57 100 100 100
82 83 53 35 36 8 0 6 56 77 45 100 99 5 5 4 5 5 5 5 5 5 5 24 25 5 5 6 40 100 100 100
62 82 74 71 60 96 70 72 100 100 100 100 86 1 1 5 14 10 94 11 5 88 58 15 11 5 5 80 30 23 6 82
73 89 98 82 89 100 100 100 100 100 100 100 96 5 5 5 96 100 100 100 99 29 38 58 98 54 5 78 92 62 43 16
42 80 83 93 65 98 100 100 100 100 100 100 100 58 72 76 58 100 100 100 100 96 70 44 80 70 73 68 64 81 73 96
100 100 84 91 100 100 100 100 100 100 100 100 95 20 13 32 43 100 100 100 100 100 100 100 100 98 98 94 95 100 98 71
100 94 100 99 100 100 100 100 100 100 100 100 99 62 30 99 72 74 100 100 100 90 73 100 100 100 100 100 100 100 87 60
100 99 66 88 75 89 100 100 100 100 100 100 100 100 100 100 94 10 28 92 96 100 100 100 100 100 100 100 100 100 100 100
100 91 77 72 64 68 100 100 100 100 100 100 37 24 99 100 89 25 5 29 72 82 88 52 100 100 100 100 100 100 100 100
68 97 77 85 91 96 99 82 52 100 100 15 7 83 100 100 29 3 5 5 5 5 94 100 100 100 100 100 100 100 100 100
100 100 98 99 96 70 38 17 99 81 18 8 53 100 100 42 4 5 3 5 5 69 92 78 91 91 100 100 86 89 99 100
100 100 100 100 64 100 90 93 100 50 33 5 36 100 96 100 70 81 30 5 5 5 87 78 100 100 100 98 55 47 100 59
100 100 100 100 100 100 100 100 100 47 6 7 48 96 56 57 83 98 100 100 100 62 43 59 58 71 92 97 99 90 92 100
94 100 100 100 100 100 100 100 100 84 48 99 100 100 100 100 98 90 99 100 100 97 100 100 77 89 71 27 66 90 100 100
98 100 100 100 100 100 100 100 100 100 83 100 100 100 100 100 100 100 100 99 100 98 100 100 100 100 100 74 100 94 100 100
100 100 100 100 100 100 100 100 100 100 100 100 100 100 100 100 100 100 100 100 100 100 100 100 100 100 100 100 100 53 99 100
100 100 100 100 100 100 100 100 100 100 100 100 100 100 100 100 100 100 100 100 100 100 100 100 100 100 100 100 100 97 100 46
100 100 100 100 100 100 100 100 100 100 100 100 100 100 100 100 100 100 100 100 100 100 100 100 100 100 100 100 100 100 91 27
100 75 100 100 100 100 100 100 100 100 100 100 100 100 100 100 100 100 100 100 100 100 100 100 100 100 100 100 100 100 100 86
100 100 100 100 100 100 100 100 100 100 100 100 100 100 100 100 100 100 100 100 100 100 100 100 100 100 100 100 100 100 100 100

GFSFLT2_prec_cloud_207.txt.gz
Cloud_Cover
8 14 16 18 26 2 25 28 40 10 1 21 100 100 92 5 2 0 4 5 5 5 5 4 5 5 4 5 5 5 99 54
100 98 46 57 99 9 5 14 5 8 65 74 100 88 6 1 0 0 0 0 5 10 5 5 5 7 10 5 5 5 18 100
100 99 95 100 66 21 37 13 41 91 100 100 100 34 5 5 7 4 3 12 74 97 100 100 100 79 60 46 20 8 14 65
100 100 96 100 100 25 35 49 38 100 100 100 83 88 12 20 13 6 5 17 100 76 72 100 100 100 100 100 96 39 81 62
88 97 82 72 63 81 96 100 100 70 78 100 100 88 8 0 3 6 5 12 25 100 100 100 100 100 100 100 100 100 95 54
93 47 83 45 45 70 96 100 94 94 100 100 99 100 61 35 0 0 0 5 85 100 100 100 100 46 94 100 100 100 96 96
67 91 91 74 92 78 93 94 100 100 100 100 96 100 98 1 7 60 31 5 78 99 100 100 93 5 61 100 100 100 100 100
100 94 82 87 96 100 99 100 100 100 100 100 100 100 99 39 23 95 100 11 15 5 80 100 100 94 74 45 99 100 100 100
92 100 100 100 100 100 96 96 100 100 100 100 100 100 100 100 55 44 100 97 5 5 5 37 100 100 64 83 29 73 58 100
100 74 100 100 100 100 100 100 68 100 100 100 100 100 100 64 85 100 100 99 14 5 5 6 5 5 6 28 34 98 49 48
57 77 100 100 100 100 100 100 99 100 100 100 100 100 63 19 63 100 100 99 67 67 44 8 12 17 12 61 87 59 99 96
100 93 78 100 100 100 100 100 100 100 100 100 100 100 31 40 60 100 92 42 62 99 99 75 33 99 87 84 79 100 96 96
99 100 100 100 100 100 100 100 100 88 100 100 100 100 29 28 100 100 100 100 100 100 100 100 100 94 100 100 100 100 100 100
100 100 100 100 100 100 100 100 100 100 92 100 100 69 59 12 49 99 100 100 100 83 92 100 100 100 100 100 100 100 100 100
100 100 100 100 100 100 100 100 100 100 100 100 100 100 97 100 80 99 100 92 88 100 100 100 100 100 100 100 100 100 100 100
99 100 100 100 100 100 100 100 100 100 100 100 100 100 100 100 100 100 100 100 100 100 100 100 100 100 100 100 100 100 100 100
100 100 100 100 96 100 100 100 100 100 100 100 100 100 100 100 100 100 100 100 100 100 100 100 100 100 100 100 100 100 100 100
100 100 100 100 100 100 100 100 100 100 100 100 100 100 100 100 100 100 100 100 100 100 100 100 100 100 100 100 100 100 100 100
99 100 100 100 100 100 100 100 100 100 100 100 100 100 100 100 100 100 100 100 100 100 100 100 100 100 100 100 100 100 100 100
100 100 100 100 96 44 100 100 100 100 100 100 100 100 100 100 100 100 100 100 100 100 100 100 100 100 100 100 100 100 100 100